Location: Prescott
(34.5400°N, 112.4680°W)
Time: 06:51:23
(UTC-07:00)

Amateur Radio Satellites - All Passes

Search period start: 30 September 2014 06:21
Search period end: 01 October 2014 06:21
Location: Prescott, 34.5400°N, 112.4680°W

Satellite Date Start Highest point End Downlink Frequencies (MHz)
Time Altitude Azimuth
ISS 30 Sep 06:33:49 06:35:54 16° 232° (SW) 06:37:59 145.800 FM
AO-7 30 Sep 06:39:58 06:46:07 24° 302° (WNW) 06:52:16 29.400 - 29.500 MHz
SO-67 30 Sep 06:45:48 06:47:58 16° 94° (E) 06:50:07 435.3500 MHz FM
UOSAT-12 30 Sep 06:50:30 06:55:00 47° 246° (WSW) 06:59:25 437.025 FM, 437.400 FM
Hamsat 30 Sep 07:01:28 07:05:08 30° 288° (WNW) 07:08:47 145.90 MHz
STRAND 1 30 Sep 07:16:27 07:21:05 35° 262° (W) 07:25:44 ?
RS-15 30 Sep 07:36:32 07:39:06 11° 7° (N) 07:41:40 29.354 - 29.394 USB, Beacon 29.352 USB
JAS-2 30 Sep 07:38:18 07:43:35 25° 293° (WNW) 07:49:17 435.800 - 435.900 CW/SSB, 435.910 FM
Sapphire 30 Sep 08:10:29 08:13:56 17° 105° (ESE) 08:17:23 437.095 MHz 1200 baud AX-25 AFSK
HO-68 30 Sep 08:14:09 08:18:51 18° 93° (E) 08:23:32 435.675 MHz FM
SO-67 30 Sep 08:18:14 08:20:54 21° 288° (WNW) 08:23:33 435.3500 MHz FM
PCSat 30 Sep 08:34:36 08:39:23 33° 109° (ESE) 08:44:12 145.825 MHz
Oscar 11 30 Sep 09:16:28 09:19:12 16° 94° (E) 09:21:55 145.825 FM, Beacon 2401.500 USB
FUNcube-1 30 Sep 09:39:25 09:41:06 12° 91° (E) 09:42:47 145.950 - 145.970 MHz USB
UKube-1 30 Sep 09:43:53 09:48:05 45° 100° (E) 09:52:15 145.840 MHz, 145.915 MHz
RS-15 30 Sep 09:47:57 09:57:10 29° 42° (NE) 10:06:35 29.354 - 29.394 USB, Beacon 29.352 USB
Sapphire 30 Sep 09:51:37 09:56:52 52° 299° (WNW) 10:02:09 437.095 MHz 1200 baud AX-25 AFSK
HO-68 30 Sep 09:59:53 10:07:01 69° 288° (WNW) 10:14:08 435.675 MHz FM
PCSat 30 Sep 10:18:07 10:22:45 29° 304° (NW) 10:27:26 145.825 MHz
ZACube-1 30 Sep 10:22:14 10:26:30 39° 98° (E) 10:30:39 437.345 MHz
Oscar 11 30 Sep 10:51:32 10:55:27 34° 288° (WNW) 10:59:19 145.825 FM, Beacon 2401.500 USB
FUNcube-1 30 Sep 11:13:22 11:17:46 51° 286° (WNW) 11:22:03 145.950 - 145.970 MHz USB
UKube-1 30 Sep 11:21:39 11:23:51 14° 294° (WNW) 11:26:02 145.840 MHz, 145.915 MHz
Oscar 16 30 Sep 11:51:32 11:52:58 11° 62° (ENE) 11:54:23 437.025 USB, Beacon 2401.1428
HO-68 30 Sep 11:51:50 11:53:25 11° 305° (NW) 11:55:00 435.675 MHz FM
RS-15 30 Sep 11:59:34 12:10:48 82° 244° (WSW) 12:22:31 29.354 - 29.394 USB, Beacon 29.352 USB
ZACube-1 30 Sep 11:59:42 12:02:31 16° 293° (WNW) 12:05:17 437.345 MHz
Oscar 19 30 Sep 12:45:55 12:50:42 39° 71° (ENE) 12:55:31 437.125 CW, 437.150 USB
JAS-1B 30 Sep 12:47:11 12:53:52 33° 69° (ENE) 12:59:39 435.800 - 435.900 CW/SSB
ITAMSAT 1 30 Sep 12:57:20 13:01:05 21° 66° (ENE) 13:04:51 435.822 SSB
Uribyol 2 30 Sep 12:58:10 13:02:07 23° 67° (ENE) 13:06:05 436.500 FM
Oscar 16 30 Sep 13:26:24 13:31:35 78° 257° (WSW) 13:36:48 437.025 USB, Beacon 2401.1428
AO-27 30 Sep 13:34:10 13:39:08 49° 72° (ENE) 13:44:07 436.795 MHz FM
AO-Echo 30 Sep 13:41:52 13:46:31 68° 75° (ENE) 13:51:11 ?
AO-7 30 Sep 13:54:22 13:57:33 13° 51° (NE) 14:00:44 29.400 - 29.500 MHz
Gurwin Techsat 1B 30 Sep 13:55:24 14:00:13 37° 71° (ENE) 14:05:03 435.225 FM
Saudisat 1A 30 Sep 13:58:23 14:02:45 73° 300° (WNW) 14:07:10 436.775 MHz
RS-15 30 Sep 14:15:32 14:21:31 16° 261° (W) 14:27:39 29.354 - 29.394 USB, Beacon 29.352 USB
TMSAT-1 30 Sep 14:24:09 14:29:15 51° 73° (ENE) 14:34:21 436.925 FM
Oscar 19 30 Sep 14:26:18 14:30:07 21° 265° (W) 14:33:58 437.125 CW, 437.150 USB
MaSat-1 30 Sep 14:33:20 14:35:22 15° 56° (NE) 14:37:14 437.345 MHz
ITAMSAT 1 30 Sep 14:35:25 14:40:15 41° 261° (W) 14:45:08 435.822 SSB
Uribyol 2 30 Sep 14:36:33 14:41:18 37° 262° (W) 14:46:07 436.500 FM
JAS-1B 30 Sep 14:36:54 14:44:20 40° 260° (W) 14:50:40 435.800 - 435.900 CW/SSB
Uosat F 30 Sep 15:04:07 15:07:31 19° 66° (ENE) 15:10:55 435.120 FM
AO-27 30 Sep 15:15:41 15:18:51 16° 267° (W) 15:22:03 436.795 MHz FM
Oscar 10/S400 30 Sep 15:18:00 15:36:41 51° 154° (SSE) 16:04:19 145.825 - 145.975 CW/USB, Beacon 145.810 USB
Gurwin Techsat 1B 30 Sep 15:36:05 15:40:13 23° 265° (W) 15:44:22 435.225 FM
AO-7 30 Sep 15:40:37 15:48:50 69° 70° (ENE) 15:57:02 29.400 - 29.500 MHz
JAS-2 30 Sep 16:06:04 16:07:37 11° 61° (ENE) 16:09:11 435.800 - 435.900 CW/SSB, 435.910 FM
TMSAT-1 30 Sep 16:06:10 16:09:24 16° 267° (W) 16:12:38 436.925 FM
MaSat-1 30 Sep 16:09:43 16:11:40 16° 257° (WSW) 16:13:29 437.345 MHz
KITSAT 1 30 Sep 16:35:05 16:43:03 68° 113° (ESE) 16:51:04 435.175 FM
Uosat F 30 Sep 16:41:13 16:45:56 42° 261° (W) 16:50:41 435.120 FM
OPAL 30 Sep 16:50:55 16:55:28 33° 99° (E) 16:59:55 ?
PCSat 30 Sep 17:27:03 17:30:01 15° 49° (NE) 17:32:59 145.825 MHz
AO-7 30 Sep 17:36:07 17:42:06 22° 265° (W) 17:48:07 29.400 - 29.500 MHz
JAS-2 30 Sep 17:46:51 17:51:59 70° 258° (WSW) 17:57:18 435.800 - 435.900 CW/SSB, 435.910 FM
Hamsat 30 Sep 17:50:24 17:54:43 69° 259° (W) 17:59:02 145.90 MHz
OPAL 30 Sep 18:30:04 18:34:08 25° 294° (WNW) 18:38:10 ?
KITSAT 1 30 Sep 18:32:30 18:39:02 26° 312° (NW) 18:45:37 435.175 FM
PANSAT 30 Sep 18:33:24 18:35:25 14° 160° (SSE) 18:37:25 not established
Sapphire 30 Sep 18:42:57 18:48:20 59° 62° (ENE) 18:53:39 437.095 MHz 1200 baud AX-25 AFSK
SO-67 30 Sep 18:46:41 18:50:05 64° 77° (ENE) 18:53:30 435.3500 MHz FM
SO-50 30 Sep 18:48:10 18:52:34 66° 117° (ESE) 18:57:05 436.795 FM
PCSat 30 Sep 19:08:35 19:14:00 75° 246° (WSW) 19:19:23 145.825 MHz
UOSAT-12 30 Sep 19:22:33 19:22:57 10° 106° (ESE) 19:23:21 437.025 FM, 437.400 FM
STRAND 1 30 Sep 19:30:02 19:35:11 80° 285° (WNW) 19:40:20 ?
PANSAT 30 Sep 20:11:43 20:15:04 28° 172° (S) 20:18:25 not established
HO-68 30 Sep 20:24:03 20:31:04 64° 71° (ENE) 20:38:07 435.675 MHz FM
Sapphire 30 Sep 20:28:10 20:31:11 15° 256° (WSW) 20:34:11 437.095 MHz 1200 baud AX-25 AFSK
SO-50 30 Sep 20:31:24 20:33:35 13° 314° (NW) 20:35:48 436.795 FM
UKube-1 30 Sep 20:36:25 20:39:58 25° 70° (ENE) 20:43:33 145.840 MHz, 145.915 MHz
AO-40 30 Sep 20:45:17 23:11:26 39° 202° (SSW) 04:26:15 Beacon 2401.320
UOSAT-12 30 Sep 20:57:52 21:02:26 69° 300° (WNW) 21:07:07 437.025 FM, 437.400 FM
ZACube-1 30 Sep 21:15:42 21:19:10 22° 69° (ENE) 21:22:41 437.345 MHz
ISS 30 Sep 21:35:39 21:38:58 88° 317° (NW) 21:42:18 145.800 FM
Oscar 11 30 Sep 21:42:23 21:46:43 70° 259° (WSW) 21:51:05 145.825 FM, Beacon 2401.500 USB
PANSAT 30 Sep 21:51:24 21:54:52 31° 184° (S) 21:58:18 not established
FUNcube-1 30 Sep 22:05:34 22:10:04 82° 77° (ENE) 22:14:41 145.950 - 145.970 MHz USB
UKube-1 30 Sep 22:12:40 22:16:05 23° 264° (W) 22:19:30 145.840 MHz, 145.915 MHz
HO-68 30 Sep 22:14:11 22:19:09 20° 266° (W) 22:24:11 435.675 MHz FM
Saudisat 1A 30 Sep 22:28:38 22:32:36 31° 55° (NE) 22:36:32 436.775 MHz
ZACube-1 30 Sep 22:51:25 22:55:21 29° 264° (W) 22:59:22 437.345 MHz
ISS 30 Sep 23:14:41 23:16:05 12° 333° (NNW) 23:17:30 145.800 FM
PANSAT 30 Sep 23:31:52 23:34:34 18° 197° (SSW) 23:37:17 not established
Saudisat 1A 01 Oct 00:08:36 00:11:58 21° 249° (WSW) 00:15:18 436.775 MHz
RS-15 01 Oct 00:11:11 00:18:09 19° 101° (E) 00:25:01 29.354 - 29.394 USB, Beacon 29.352 USB
KITSAT 1 01 Oct 00:33:26 00:38:57 19° 43° (NE) 00:44:25 435.175 FM
Oscar 19 01 Oct 01:02:03 01:05:32 18° 94° (E) 01:09:00 437.125 CW, 437.150 USB
Oscar 16 01 Oct 01:41:54 01:46:54 49° 100° (E) 01:51:50 437.025 USB, Beacon 2401.1428
AO-27 01 Oct 01:51:23 01:55:32 24° 96° (E) 01:59:40 436.795 MHz FM
AO-Echo 01 Oct 01:52:29 01:56:55 30° 97° (E) 02:01:26 ?
Gurwin Techsat 1B 01 Oct 02:15:54 02:19:40 19° 94° (E) 02:23:25 435.225 FM
RS-15 01 Oct 02:17:54 02:29:02 87° 298° (WNW) 02:40:00 29.354 - 29.394 USB, Beacon 29.352 USB
JAS-1B 01 Oct 02:24:33 02:30:16 68° 103° (ESE) 02:36:35 435.800 - 435.900 CW/SSB
KITSAT 1 01 Oct 02:27:21 02:35:28 87° 63° (ENE) 02:43:32 435.175 FM
Oscar 19 01 Oct 02:40:11 02:45:01 43° 288° (WNW) 02:49:50 437.125 CW, 437.150 USB
TMSAT-1 01 Oct 02:44:03 02:48:31 27° 96° (E) 02:52:56 436.925 FM
ITAMSAT 1 01 Oct 02:51:27 02:56:42 86° 284° (WNW) 03:01:56 435.822 SSB
Uribyol 2 01 Oct 02:52:22 02:57:37 79° 285° (WNW) 03:02:49 436.500 FM
Oscar 16 01 Oct 03:22:34 03:25:48 17° 295° (WNW) 03:29:01 437.025 USB, Beacon 2401.1428
SO-50 01 Oct 03:23:24 03:27:25 25° 52° (NE) 03:31:27 436.795 FM
AO-27 01 Oct 03:30:21 03:35:03 35° 290° (WNW) 03:39:45 436.795 MHz FM
AO-Echo 01 Oct 03:31:21 03:35:32 27° 290° (WNW) 03:39:50 ?
AO-7 01 Oct 03:47:04 03:53:53 28° 97° (E) 04:00:39 29.400 - 29.500 MHz
Gurwin Techsat 1B 01 Oct 03:54:46 03:59:46 43° 288° (WNW) 04:04:45 435.225 FM
OPAL 01 Oct 04:02:08 04:06:59 41° 69° (ENE) 04:11:52 ?
ISS 01 Oct 04:07:33 04:10:16 23° 34° (NE) 04:12:58 145.800 FM
MaSat-1 01 Oct 04:12:30 04:16:01 20° 104° (ESE) 04:19:29 437.345 MHz
JAS-1B 01 Oct 04:17:44 04:20:27 14° 297° (WNW) 04:23:15 435.800 - 435.900 CW/SSB
TMSAT-1 01 Oct 04:23:44 04:28:21 31° 290° (WNW) 04:32:58 436.925 FM
KITSAT 1 01 Oct 04:25:30 04:29:46 15° 259° (W) 04:34:02 435.175 FM
RS-15 01 Oct 04:34:40 04:43:03 24° 322° (NW) 04:51:29 29.354 - 29.394 USB, Beacon 29.352 USB
Uosat F 01 Oct 04:52:06 04:57:09 78° 103° (ESE) 05:02:11 435.120 FM
JAS-2 01 Oct 04:58:42 05:03:47 21° 94° (E) 05:09:10 435.800 - 435.900 CW/SSB, 435.910 FM
SO-50 01 Oct 05:03:38 05:08:00 34° 247° (WSW) 05:12:23 436.795 FM
STRAND 1 01 Oct 05:08:02 05:09:03 11° 62° (ENE) 05:10:03 ?
UOSAT-12 01 Oct 05:31:00 05:35:25 38° 56° (NE) 05:39:45 437.025 FM, 437.400 FM
AO-7 01 Oct 05:38:53 05:46:55 57° 292° (WNW) 05:54:57 29.400 - 29.500 MHz
Hamsat 01 Oct 05:40:12 05:43:43 26° 96° (E) 05:47:12 145.90 MHz
OPAL 01 Oct 05:42:08 05:45:57 21° 263° (W) 05:49:48 ?
ISS 01 Oct 05:44:01 05:46:58 30° 229° (SW) 05:49:55 145.800 FM
MaSat-1 01 Oct 05:47:42 05:52:15 39° 297° (WNW) 05:56:38 437.345 MHz
